Sumter, SC

9:20 PM EDT on March 22, 2017 (GMT -0400)
Sumter Municipal

Weather History for KSMS - December, 2012

Change the Weather History Date:

Monday, December 17, 2012

  Actual Average Record
Temperature  
Mean Temperature 58 °F -  
Max Temperature 62 °F 57 °F 77 °F (2015)
Min Temperature 55 °F 34 °F 33 °F (2016)
Degree Days  
Heating Degree Days 6    
Growing Degree Days 8 (Base 50)    
Moisture  
Dew Point 58 °F    
Average Humidity 100    
Maximum Humidity 100    
Minimum Humidity 100    
Precipitation  
Precipitation 0.48 in - - ()
Sea Level Pressure  
Sea Level Pressure 29.84 in    
Wind  
Wind Speed 5 mph (SW)    
Max Wind Speed 10 mph    
Max Gust Speed -    
Visibility 7 miles    
Events Rain    
Averages and records for this station are not official NWS values.
T = Trace of Precipitation, MM = Missing Value Source: NWS Daily Summary

Daily Weather History Graph

Daily Weather History Graph

Search for Another Location

Airport or City:

Trip Planner

Search our weather history database for the weather conditions in past years. The results will help you decide how hot, cold, wet, or windy it might be!

Date:

Astronomy

Dec. 17, 2012 Rise Set
Actual Time 7:21 AM EST 5:14 PM EST
Civil Twilight 6:53 AM EST 5:42 PM EST
Nautical Twilight 6:21 AM EST 6:13 PM EST
Astronomical Twilight 5:51 AM EST 6:44 PM EST
Moon 10:39 AM EST (12/17) 10:22 PM EST (12/17)
Length of Visible Light 10h 49m
Length of Day
9h 53m
Waxing Crescent, 24% of the Moon is Illuminated
Dec 17
Waxing Crescent
Dec 20
First Quarter
Dec 28
Full
Jan 4
Last Quarter
Jan 11
New

Hourly Weather History & Observations

Time (EST) Temp. Dew Point Humidity Pressure Visibility Wind Dir Wind Speed Gust Speed Precip Events Conditions
12:15 AM 59.0 °F 59.0 °F 100% 29.89 in 3.0 mi South 4.6 mph - N/A Rain Light Rain
12:55 AM 60.8 °F 60.8 °F 100% 29.88 in 5.0 mi SSW 6.9 mph - 0.01 in Rain Light Rain
1:15 AM 60.8 °F 60.8 °F 100% 29.88 in 8.0 mi SSW 10.4 mph - 0.01 in   Mostly Cloudy
1:35 AM 62.6 °F 62.6 °F 100% 29.87 in 7.0 mi SSW 6.9 mph - 0.01 in Rain Light Rain
1:55 AM 62.6 °F 62.6 °F 100% 29.89 in 10.0 mi West 4.6 mph - 0.01 in   Mostly Cloudy
2:15 AM 62.6 °F 62.6 °F 100% 29.89 in 2.0 mi WNW 9.2 mph - 0.08 in Rain Light Rain
2:35 AM 59.0 °F 59.0 °F 100% 29.90 in 3.0 mi North 10.4 mph - 0.09 in   Overcast
2:55 AM 57.2 °F 57.2 °F 100% 29.91 in 3.0 mi North 10.4 mph - 0.10 in Rain Light Rain
3:15 AM 57.2 °F 57.2 °F 100% 29.91 in 2.5 mi NNW 5.8 mph - 0.02 in   Overcast
3:35 AM 57.2 °F 57.2 °F 100% 29.90 in 2.5 mi North 4.6 mph - 0.07 in   Overcast
3:55 AM 57.2 °F 57.2 °F 100% 29.89 in 6.0 mi Calm Calm - 0.08 in Rain Light Rain
4:15 AM 57.2 °F 57.2 °F 100% 29.88 in 10.0 mi Calm Calm - N/A Rain Light Rain
4:35 AM 57.2 °F 57.2 °F 100% 29.85 in 10.0 mi SE 5.8 mph - N/A Rain Light Rain
4:55 AM 57.2 °F 57.2 °F 100% 29.84 in 10.0 mi SE 5.8 mph - N/A   Mostly Cloudy
5:15 AM 55.4 °F 55.4 °F 100% 29.82 in 9.0 mi SE 5.8 mph - N/A Rain Light Rain
5:35 AM 55.4 °F 55.4 °F 100% 29.82 in 10.0 mi SSE 6.9 mph - N/A   Mostly Cloudy
5:55 AM 55.4 °F 55.4 °F 100% 29.83 in 10.0 mi South 3.5 mph - N/A   Overcast
6:15 AM 55.4 °F 55.4 °F 100% 29.83 in 10.0 mi Calm Calm - N/A   Overcast
6:35 AM 55.4 °F 55.4 °F 100% 29.84 in 10.0 mi South 3.5 mph - N/A   Overcast
6:55 AM 55.4 °F 55.4 °F 100% 29.83 in 10.0 mi South 5.8 mph - N/A   Overcast
7:15 AM 57.2 °F 57.2 °F 100% 29.86 in 10.0 mi West 4.6 mph - N/A   Overcast
7:35 AM 57.2 °F 57.2 °F 100% 29.87 in 10.0 mi West 3.5 mph - N/A   Overcast
7:55 AM 57.2 °F 57.2 °F 100% 29.87 in 7.0 mi Calm Calm - N/A   Overcast
8:15 AM 57.2 °F 57.2 °F 100% 29.88 in 7.0 mi NNW 3.5 mph - N/A   Overcast
8:35 AM 57.2 °F 57.2 °F 100% 29.88 in 8.0 mi NW 5.8 mph - N/A   Overcast
8:55 AM 57.2 °F 57.2 °F 100% 29.90 in 4.0 mi NW 5.8 mph - N/A   Overcast
9:15 AM 57.2 °F 57.2 °F 100% 29.90 in 5.0 mi WNW 5.8 mph - N/A   Overcast
9:35 AM 57.2 °F 57.2 °F 100% 29.89 in 4.0 mi Calm Calm - N/A   Overcast
9:55 AM 57.2 °F 57.2 °F 100% 29.88 in 5.0 mi Calm Calm - N/A   Overcast
10:15 AM 57.2 °F 57.2 °F 100% 29.90 in 5.0 mi WNW 3.5 mph - N/A   Overcast
10:35 AM 57.2 °F 57.2 °F 100% 29.90 in 5.0 mi NW 3.5 mph - N/A   Overcast
10:55 AM 57.2 °F 57.2 °F 100% 29.89 in 6.0 mi Calm Calm - N/A   Overcast
11:15 AM 57.2 °F 57.2 °F 100% 29.88 in 8.0 mi Calm Calm - N/A   Overcast
11:35 AM 59.0 °F 59.0 °F 100% 29.87 in 9.0 mi Calm Calm - N/A   Overcast
11:55 AM 59.0 °F 59.0 °F 100% 29.87 in 7.0 mi Calm Calm - N/A Rain Light Rain
12:15 PM 59.0 °F 59.0 °F 100% 29.86 in 5.0 mi SW 5.8 mph - N/A Rain Light Rain
12:35 PM 59.0 °F 59.0 °F 100% 29.84 in 5.0 mi SSW 4.6 mph - N/A   Mostly Cloudy
12:55 PM 59.0 °F 59.0 °F 100% 29.84 in 5.0 mi West 3.5 mph - N/A   Overcast
1:15 PM 59.0 °F 59.0 °F 100% 29.86 in 5.0 mi SW 8.1 mph - N/A Rain Light Rain
1:35 PM 59.0 °F 59.0 °F 100% 29.84 in 7.0 mi SW 6.9 mph - 0.01 in Rain Light Rain
1:55 PM 59.0 °F 59.0 °F 100% 29.84 in 5.0 mi SW 5.8 mph - 0.02 in Rain Light Rain
2:15 PM 59.0 °F 59.0 °F 100% 29.85 in 6.0 mi SW 4.6 mph - 0.01 in Rain Light Rain
2:35 PM 59.0 °F 59.0 °F 100% 29.82 in 4.0 mi Calm Calm - 0.04 in Rain Light Rain
2:55 PM 59.0 °F 59.0 °F 100% 29.82 in 6.0 mi SW 3.5 mph - 0.04 in Rain Light Rain
3:15 PM 59.0 °F 59.0 °F 100% 29.82 in 5.0 mi SW 4.6 mph - 0.01 in Rain Light Rain
3:35 PM 59.0 °F 59.0 °F 100% 29.80 in 5.0 mi South 3.5 mph - 0.03 in Rain Light Rain
3:55 PM 59.0 °F 59.0 °F 100% 29.81 in 5.0 mi SW 4.6 mph - 0.06 in Rain Rain
4:15 PM 59.0 °F 59.0 °F 100% 29.81 in 3.0 mi Calm Calm - 0.06 in Rain Heavy Rain
4:35 PM 59.0 °F 59.0 °F 100% 29.82 in 3.0 mi South 6.9 mph - 0.12 in Rain Rain
4:55 PM 59.0 °F 59.0 °F 100% 29.78 in 5.0 mi South 10.4 mph - 0.16 in Rain Rain
7:35 PM 57.2 °F 57.2 °F 100% 29.75 in 10.0 mi West 5.8 mph - N/A   Clear
7:55 PM 57.2 °F 57.2 °F 100% 29.76 in 10.0 mi Calm Calm - N/A   Partly Cloudy
8:15 PM 57.2 °F 57.2 °F 100% 29.74 in 10.0 mi Calm Calm - N/A   Clear
8:35 PM 57.2 °F 57.2 °F 100% 29.75 in 10.0 mi SSW 3.5 mph - N/A   Scattered Clouds
8:55 PM 57.2 °F 57.2 °F 100% 29.76 in 10.0 mi SSW 4.6 mph - N/A   Overcast
9:15 PM 57.2 °F 57.2 °F 100% 29.75 in 10.0 mi SW 5.8 mph - N/A   Overcast
9:35 PM 57.2 °F 57.2 °F 100% 29.76 in 10.0 mi SSW 6.9 mph - N/A   Overcast
9:55 PM 57.2 °F 57.2 °F 100% 29.76 in 10.0 mi SSW 6.9 mph - N/A   Overcast
10:15 PM 57.2 °F 57.2 °F 100% 29.76 in 10.0 mi SSW 6.9 mph - N/A   Overcast
10:35 PM 59.0 °F 59.0 °F 100% 29.76 in 10.0 mi SSW 8.1 mph - N/A   Overcast
10:55 PM 59.0 °F 59.0 °F 100% 29.75 in 10.0 mi SW 10.4 mph - N/A   Overcast
11:15 PM 59.0 °F 59.0 °F 100% 29.75 in 10.0 mi SW 8.1 mph - N/A   Overcast
11:35 PM 59.0 °F 59.0 °F 100% 29.76 in 10.0 mi WSW 10.4 mph - N/A   Overcast
11:55 PM 59.0 °F 59.0 °F 100% 29.75 in 10.0 mi SW 9.2 mph - N/A   Overcast